GW2634 Weather Reports


time (UTC)temp
F
wind
direction
speed
knots
gust
knots
rain 1hr
in
rain 24hr
in
rain mn
in
humidity
%
barometer
mb
20260505021544 58 169 6.1 11.3 0.00 0.00 0.00 75 1010.7
20260505020041 58 200 4.3 9.6 0.00 0.00 0.00 75 1010.7
20260505014541 59 173 3.5 10.4 0.00 0.00 0.00 75 1010.9
20260505013046 59 179 7.0 12.2 0.00 0.00 0.00 74 1010.8
20260505011544 59 136 6.1 10.4 0.00 0.00 0.00 73 1011.0
20260505010053 60 189 6.1 10.4 0.00 0.00 0.00 73 1011.1
20260505004541 60 167 7.0 10.4 0.00 0.00 0.00 73 1011.1
20260505003041 61 198 4.3 8.7 0.00 0.00 0.00 70 1011.2
20260505001550 61 198 5.2 8.7 0.00 0.00 0.00 69 1011.2
20260505000049 62 174 4.3 8.7 0.00 0.00 0.00 67 1011.4
20260504234545 62 183 4.3 7.8 0.00 0.00 0.00 66 1011.4
20260504233100 62 188 6.1 9.6 0.00 0.00 0.00 64 1011.5
20260504231546 64 180 4.3 8.7 0.00 0.00 0.00 62 1011.5
20260504230052 63 171 5.2 7.8 0.00 0.00 0.00 63 1011.5
20260504224541 61 162 6.1 9.6 0.00 0.00 0.00 67 1011.7
20260504223048 62 131 6.1 9.6 0.00 0.00 0.00 67 1011.7
20260504221544 62 158 5.2 9.6 0.00 0.00 0.00 66 1011.8
20260504220044 63 176 7.0 10.4 0.00 0.00 0.00 63 1011.8
20260504214554 66 132 4.3 8.7 0.00 0.00 0.00 60 1011.9
20260504213041 67 206 5.2 8.7 0.00 0.00 0.00 56 1012.0
20260504211547 66 187 4.3 7.0 0.00 0.00 0.00 59 1012.0
20260504210104 68 163 1.7 6.1 0.00 0.00 0.00 59 1011.9
20260504204548 67 224 2.6 5.2 0.00 0.00 0.00 58 1012.0
20260504203100 66 131 2.6 5.2 0.00 0.00 0.00 60 1012.2
20260504201551 67 245 2.6 4.3 0.00 0.00 0.00 61 1012.2
20260504200042 66 231 1.7 4.3 0.00 0.00 0.00 60 1012.2
20260504194541 65 221 2.6 5.2 0.00 0.00 0.00 60 1012.2
20260504193049 64 171 3.5 5.2 0.00 0.00 0.00 63 1012.2
20260504191545 65 196 2.6 5.2 0.00 0.00 0.00 62 1012.3
20260504190106 65 178 3.5 5.2 0.00 0.00 0.00 60 1012.3
20260504184543 66 219 2.6 5.2 0.00 0.00 0.00 60 1012.3
20260504183042 67 207 1.7 3.5 0.00 0.00 0.00 59 1012.2
20260504181543 65 231 2.6 3.5 0.00 0.00 0.00 62 1012.2
20260504180047 65 162 1.7 4.3 0.00 0.00 0.00 63 1012.3
20260504174545 64 224 0.9 4.3 0.00 0.00 0.00 65 1012.3
20260504173043 62 164 1.7 4.3 0.00 0.00 0.00 66 1012.3
20260504171543 61 168 2.6 4.3 0.00 0.00 0.00 68 1012.4
20260504081547 57 0 0.0 1.7 0.00 0.00 0.00 67 1011.0
20260504044550 59 0 0.0 0.0 0.00 0.00 0.00 66 1011.0
20260504043052 60 0 0.0 0.0 0.00 0.00 0.00 65 1011.0
20260504041541 60 0 0.0 0.9 0.00 0.00 0.00 64 1010.8
20260504040043 60 0 0.0 0.9 0.00 0.00 0.00 65 1010.9
20260504034543 61 0 0.0 0.9 0.00 0.00 0.00 62 1010.9
20260504033041 63 0 0.0 0.9 0.00 0.00 0.00 60 1010.9
20260504031541 65 167 0.9 2.6 0.00 0.00 0.00 55 1010.9
20260504030048 67 139 0.9 4.3 0.00 0.00 0.00 52 1011.0
20260504024543 68 184 0.9 3.5 0.00 0.00 0.00 50 1011.2
20260504023044 69 196 0.9 3.5 0.00 0.00 0.00 48 1011.2